Home > Weather > Hamilton > Past weeks

Flag for Bermuda Weather for the Past 2 Weeks in Hamilton, Bermuda

Now
66 °F

Light rain. Mostly cloudy.


Feels Like: 66 °F
Forecast: 67 / 69 °F
Wind: 12 mph from Northwest

Location: Bermuda

Current Time: Feb 6, 2016 at 3:35:22 AM

Latest Report: Feb 6, 2016 at 2:55 AM


Visibility: N/A

Pressure: 30.09 "Hg

Humidity: 94%

Dew point: 64 °F

Location of HamiltonLocation

Historic Weather in Hamilton — Graph

°F

Hamilton Temperature Yesterday

Maximum temperature yesterday: 73 °F (at 11:55 AM)
Minimum temperature yesterday: 70 °F (at 12:55 AM)
Average temperature yesterday: 71 °F

High & Low Weather Summary for the Past Weeks

 TemperatureHumidityPressure
High73 °F (Jan 28, 11:55 AM)94% (Jan 23, 5:55 PM)30.51 "Hg (Jan 23, 5:55 PM)
Low59 °F (Jan 25, 3:55 AM)52% (Jan 22, 7:55 AM)29.56 "Hg (Jan 23, 4:55 PM)
Average67 °F74%30.09 "Hg
* Reported Jan 22 2:55 AM — Feb 6 2:02 AM, Hamilton, Weather by CustomWeather, © 2016

Note: Actual official high and low records may vary slightly from our data, if they occured in-between our weather recording intervals... More about our weather records

Advertising

Hamilton Weather History for the Previous 24 Hours

 ConditionsComfort  
Time TempWeatherWind HumidityBarometerVisibility
2:02 AM
Sat, Feb 6
68 °FRain. Mostly cloudy.13 mph83%30.09 "Hg2 mi
1:55 AM70 °FScattered showers. Mostly cloudy.8 mph94%30.07 "HgN/A
1:03 AM70 °FPartly cloudy.9 mph88%30.07 "HgN/A
11:55 PM
Fri, Feb 5
70 °FScattered showers. Fog.8 mph94%30.07 "Hg5 mi
10:55 PM70 °FFog.8 mph94%30.09 "Hg5 mi
9:55 PM70 °FFog.10 mph94%30.09 "Hg5 mi
8:55 PM70 °FFog.13 mph94%30.07 "Hg5 mi
7:55 PM70 °FFog.14 mph94%30.07 "Hg5 mi
6:55 PM70 °FFog.16 mph94%30.07 "Hg6 mi
5:55 PM72 °FScattered showers. Fog.14 mph88%30.07 "Hg5 mi
4:55 PM72 °FScattered showers. Fog.14 mph88%30.07 "Hg6 mi
3:55 PM72 °FBroken clouds.13 mph88%30.09 "HgN/A
2:55 PM72 °FScattered showers. Mostly cloudy.13 mph88%30.09 "Hg6 mi
1:55 PM72 °FScattered showers. Broken clouds.12 mph88%30.09 "Hg6 mi
12:55 PM73 °FPartly sunny.15 mph83%30.12 "HgN/A
11:55 AM73 °FPartly sunny.15 mph78%30.18 "HgN/A
10:55 AM72 °FPartly sunny.14 mph83%30.21 "HgN/A
9:55 AM72 °FBroken clouds.16 mph83%30.21 "HgN/A
8:55 AM72 °FBroken clouds.14 mph78%30.18 "HgN/A
7:55 AM70 °FPartly sunny.14 mph83%30.18 "HgN/A
6:55 AM70 °FPassing clouds.17 mph83%30.18 "HgN/A
5:55 AM70 °FPassing clouds.15 mph83%30.18 "HgN/A
4:55 AM70 °FPassing clouds.18 mph78%30.18 "HgN/A
3:55 AM70 °FPassing clouds.16 mph78%30.21 "HgN/A
Weather by CustomWeather, © 2016

See weather overviewHow to use our weather pages